IRIDIUM 33 DEB, 35622

Orbit data source: Space-Track

IRIDIUM 33 DEB, 35622 is space debris in LEO originally from a launch on Sun, 14 Sep 1997 UTC launched from the Tyuratam Missile And Space Complex (TTMTR). The debris from Iridium 33, an American commercial communications satellite, has been tracked extensively since its accidental collision with the defunct Russian satellite Cosmos 2251 in 2009. This event, occurring at high speed in low Earth orbit (LEO), generated thousands of pieces of space debris, significantly increasing the risk of further collisions. The Iridium 33 debris cloud has impacted space traffic management and orbital debris mitigation strategies, making it a subject of ongoing study in space situational awareness.

Loading next visibility...
Identifier
35622, 1997-051QU
Orbit
LEO
Country
Flag of USUS
Related business
Manufacturer
Unknown
Mission
Spacecraft
Bus & Motor
Unknown
Mass
Unknown
Launch date (UTC)
1997-09-14 (28 years ago)
Launch vehicle
Unknown
Launch site
Tyuratam Missile And Space Complex (TTMTR)
Object type
Payload
Rocket body
Debris
Shape & HBR
Unknown shape, 0.1 m
Radar Cross Section
Small (<0.1 m²)

Expand to show TLE details & history
Last TLE update: 14 hours ago

TLE from 14 hours ago
0 IRIDIUM 33 DEB
1 35622U 97051QU  26063.42798697  .00070982  00000-0  39111-2 0  9992
2 35622  86.1939 223.0069 0006406 321.0866  68.4052 15.13680139885924
Epoch: 2026-03-04T10:16Z
TLE epoch observation values (Epoch: 2026-03-04T10:16:18.074Z)
Latitude
29.53858°
Longitude
-91.11266°
Altitude
527.252 km
Speed
7.603 km/s
True Right ascension
15h 00m 37s
True Declination
29° 23' 11"
Sunlit
Object was in full shadow at epoch
Visualization orbit readout
Latitude
Unknown
Longitude
Unknown
Altitude
Unknown
Speed
Unknown
Apparent Right ascension
Unknown
Apparent Declination
Unknown
Sunlit
N/A
Visualization observer readout
Local Sidereal Time
03:43:44
Azimuth
Unknown
Elevation
Unknown
Doppler factor
Unknown
Orbital elements
Apogee altitude
526.266 km
Perigee altitude
517.426 km
Semi-major axis
6,899.983 km
Eccentricity
0.00064
Inclination
86.1939°
RAAN
223.0069°
Arg. of periapsis
321.0866°
True anomaly
68.47347°
Mean anomaly
68.4052°
Eccentric anomaly
68.43934°
Mean motion
3.78679 °/min
Orbital period
95.07 mins
BSTAR
0.0039111
Loading maneuver chart data...
Computing Atmospheric mass density...
Loading historical data...
Loading historical data...
Loading historical data...
Loading historical data...
Loading historical data...
Loading historical data...
Loading historical data...

Documentation

Showing up to 5 results
|